Time,TemperatureF,DewpointF,PressureIn,WindDirection,WindDirectionDegrees,WindSpeedMPH,WindSpeedGustMPH,Humidity,HourlyPrecipIn,Conditions,Clouds,dailyrainin,SoftwareType,DateUTC
2013-04-25 00:03:00,35.0,33.0,-100.00,WSW,245,4.0,6.0,90,0.00,,,-99.99,,2013-04-25 04:03:00,
2013-04-25 00:12:00,35.0,33.0,-100.00,WSW,240,4.0,7.0,90,0.00,,,-99.99,,2013-04-25 04:12:00,
2013-04-25 00:23:00,35.0,33.0,-100.00,WSW,255,3.0,6.0,90,0.00,,,-99.99,,2013-04-25 04:23:00,
2013-04-25 00:33:00,35.0,33.0,-100.00,WSW,250,4.0,6.0,91,0.00,,,-99.99,,2013-04-25 04:33:00,
2013-04-25 00:43:00,35.0,33.0,-100.00,WSW,245,3.0,6.0,91,0.00,,,-99.99,,2013-04-25 04:43:00,
2013-04-25 00:52:00,35.0,33.0,-100.00,WSW,245,3.0,6.0,90,0.00,,,-99.99,,2013-04-25 04:52:00,
2013-04-25 01:03:00,35.0,32.0,-100.00,WSW,245,3.0,4.0,91,0.00,,,-99.99,,2013-04-25 05:03:00,
2013-04-25 01:12:00,35.0,32.0,-100.00,SW,230,4.0,6.0,92,0.00,,,-99.99,,2013-04-25 05:12:00,
2013-04-25 01:21:00,34.0,32.0,-100.00,SW,215,4.0,6.0,92,0.00,,,-99.99,,2013-04-25 05:21:00,
2013-04-25 01:32:00,34.0,32.0,-100.00,SSW,210,4.0,6.0,93,0.00,,,-99.99,,2013-04-25 05:32:00,
2013-04-25 01:42:00,34.0,32.0,-100.00,SW,215,4.0,6.0,92,0.00,,,-99.99,,2013-04-25 05:42:00,
2013-04-25 01:51:00,34.0,31.0,-100.00,SSW,200,4.0,5.0,92,0.00,,,-99.99,,2013-04-25 05:51:00,
2013-04-25 02:02:00,34.0,32.0,-100.00,SSW,210,3.0,4.0,91,0.00,,,-99.99,,2013-04-25 06:02:00,
2013-04-25 02:11:00,34.0,31.0,-100.00,SW,215,4.0,6.0,90,0.00,,,-99.99,,2013-04-25 06:11:00,
2013-04-25 02:22:00,34.0,31.0,-100.00,SSW,210,4.0,6.0,90,0.00,,,-99.99,,2013-04-25 06:22:00,
2013-04-25 02:32:00,34.0,31.0,-100.00,SSW,210,4.0,6.0,89,0.00,,,-99.99,,2013-04-25 06:32:00,
2013-04-25 02:42:00,33.0,31.0,-100.00,SSW,200,4.0,6.0,90,0.00,,,-99.99,,2013-04-25 06:42:00,
2013-04-25 02:52:00,33.0,31.0,-100.00,SSW,195,4.0,6.0,91,0.00,,,-99.99,,2013-04-25 06:52:00,
2013-04-25 03:02:00,33.0,31.0,-100.00,SSW,200,4.0,6.0,91,0.00,,,-99.99,,2013-04-25 07:02:00,
2013-04-25 03:12:00,33.0,31.0,-100.00,SSW,200,2.0,4.0,90,0.00,,,-99.99,,2013-04-25 07:12:00,
2013-04-25 03:22:00,33.0,30.0,-100.00,SSW,210,4.0,6.0,90,0.00,,,-99.99,,2013-04-25 07:22:00,
2013-04-25 03:32:00,33.0,30.0,-100.00,SW,215,5.0,6.0,91,0.00,,,-99.99,,2013-04-25 07:32:00,
2013-04-25 03:42:00,32.0,30.0,-100.00,SSW,205,5.0,6.0,91,0.00,,,-99.99,,2013-04-25 07:42:00,
2013-04-25 03:52:00,32.0,30.0,-100.00,SSW,205,6.0,6.0,92,0.00,,,-99.99,,2013-04-25 07:52:00,
2013-04-25 04:02:00,32.0,30.0,-100.00,SSW,210,4.0,6.0,91,0.00,,,-99.99,,2013-04-25 08:02:00,
2013-04-25 04:11:00,32.0,30.0,-100.00,SSW,210,4.0,6.0,91,0.00,,,-99.99,,2013-04-25 08:11:00,
2013-04-25 04:21:00,32.0,30.0,-100.00,SW,215,4.0,6.0,91,0.00,,,-99.99,,2013-04-25 08:21:00,
2013-04-25 04:32:00,32.0,30.0,-100.00,SW,220,4.0,6.0,91,0.00,,,-99.99,,2013-04-25 08:32:00,
2013-04-25 04:42:00,33.0,30.0,-100.00,SSW,210,4.0,6.0,91,0.00,,,-99.99,,2013-04-25 08:42:00,
2013-04-25 04:51:00,33.0,30.0,-100.00,SSW,205,4.0,5.0,91,0.00,,,-99.99,,2013-04-25 08:51:00,
2013-04-25 05:01:00,32.0,30.0,-100.00,SSW,205,4.0,6.0,91,0.00,,,-99.99,,2013-04-25 09:01:00,
2013-04-25 05:11:00,32.0,30.0,-100.00,SSW,210,4.0,6.0,92,0.00,,,-99.99,,2013-04-25 09:11:00,
2013-04-25 05:21:00,32.0,30.0,-100.00,SW,220,5.0,7.0,92,0.00,,,-99.99,,2013-04-25 09:21:00,
2013-04-25 05:33:00,33.0,31.0,-100.00,SW,225,4.0,7.0,92,0.00,,,-99.99,,2013-04-25 09:33:00,
2013-04-25 05:42:00,33.0,31.0,-100.00,SW,225,4.0,7.0,93,0.00,,,-99.99,,2013-04-25 09:42:00,
2013-04-25 05:52:00,33.0,31.0,-100.00,SW,225,5.0,7.0,93,0.00,,,-99.99,,2013-04-25 09:52:00,
2013-04-25 06:02:00,33.0,31.0,-100.00,SW,215,5.0,8.0,93,0.00,,,-99.99,,2013-04-25 10:02:00,
2013-04-25 06:12:00,33.0,31.0,-100.00,SW,215,4.0,7.0,94,0.00,,,-99.99,,2013-04-25 10:12:00,
2013-04-25 06:22:00,33.0,31.0,-100.00,SSW,210,4.0,6.0,95,0.00,,,-99.99,,2013-04-25 10:22:00,
2013-04-25 06:33:00,32.0,31.0,-100.00,SSW,210,4.0,6.0,95,0.00,,,-99.99,,2013-04-25 10:33:00,
2013-04-25 06:42:00,32.0,31.0,-100.00,SW,220,4.0,5.0,95,0.00,,,-99.99,,2013-04-25 10:42:00,
2013-04-25 06:52:00,32.0,31.0,-100.00,SW,220,3.0,5.0,95,0.00,,,-99.99,,2013-04-25 10:52:00,
2013-04-25 07:02:00,32.0,31.0,-100.00,SW,215,4.0,5.0,95,0.00,,,-99.99,,2013-04-25 11:02:00,
2013-04-25 07:12:00,33.0,31.0,-100.00,SW,215,3.0,4.0,96,0.00,,,-99.99,,2013-04-25 11:12:00,
2013-04-25 07:22:00,33.0,31.0,-100.00,SSW,205,4.0,6.0,95,0.00,,,-99.99,,2013-04-25 11:22:00,
2013-04-25 07:32:00,33.0,32.0,-100.00,SSW,210,4.0,6.0,95,0.00,,,-99.99,,2013-04-25 11:32:00,
2013-04-25 07:42:00,33.0,32.0,-100.00,SW,220,5.0,6.0,95,0.00,,,-99.99,,2013-04-25 11:42:00,
2013-04-25 07:51:00,34.0,33.0,-100.00,SW,220,6.0,8.0,94,0.00,,,-99.99,,2013-04-25 11:51:00,
2013-04-25 08:01:00,35.0,33.0,-100.00,SW,220,6.0,8.0,93,0.00,,,-99.99,,2013-04-25 12:01:00,
2013-04-25 08:12:00,35.0,33.0,-100.00,SW,220,6.0,9.0,93,0.00,,,-99.99,,2013-04-25 12:12:00,
2013-04-25 08:21:00,36.0,33.0,-100.00,SW,220,5.0,7.0,92,0.00,,,-99.99,,2013-04-25 12:21:00,
2013-04-25 08:32:00,37.0,34.0,-100.00,SW,220,7.0,9.0,90,0.00,,,-99.99,,2013-04-25 12:32:00,
2013-04-25 08:42:00,38.0,35.0,-100.00,SW,220,6.0,9.0,89,0.00,,,-99.99,,2013-04-25 12:42:00,
2013-04-25 08:51:00,38.0,35.0,-100.00,SW,225,6.0,10.0,87,0.00,,,-99.99,,2013-04-25 12:51:00,
2013-04-25 09:02:00,39.0,35.0,-100.00,SW,225,6.0,10.0,86,0.00,,,-99.99,,2013-04-25 13:02:00,
2013-04-25 09:11:00,39.0,35.0,-100.00,SW,225,6.0,9.0,86,0.00,,,-99.99,,2013-04-25 13:11:00,
2013-04-25 09:21:00,40.0,35.0,-100.00,SSW,205,9.0,13.0,83,0.00,,,-99.99,,2013-04-25 13:21:00,
2013-04-25 09:32:00,41.0,36.0,-100.00,SW,220,6.0,11.0,82,0.00,,,-99.99,,2013-04-25 13:32:00,
2013-04-25 09:42:00,41.0,34.0,-100.00,SW,230,9.0,14.0,76,0.00,,,-99.99,,2013-04-25 13:42:00,
2013-04-25 09:52:00,42.0,34.0,-100.00,SSW,205,8.0,13.0,74,0.00,,,-99.99,,2013-04-25 13:52:00,
2013-04-25 10:02:00,43.0,35.0,-100.00,WSW,240,6.0,11.0,74,0.00,,,-99.99,,2013-04-25 14:02:00,
2013-04-25 10:11:00,43.0,33.0,-100.00,SW,235,11.0,13.0,66,0.00,,,-99.99,,2013-04-25 14:11:00,
2013-04-25 10:21:00,43.0,31.0,-100.00,SW,215,10.0,15.0,62,0.00,,,-99.99,,2013-04-25 14:21:00,
2013-04-25 10:32:00,44.0,33.0,-100.00,SSW,210,13.0,17.0,64,0.00,,,-99.99,,2013-04-25 14:32:00,
2013-04-25 10:42:00,43.0,31.0,-100.00,WSW,245,12.0,18.0,61,0.00,,,-99.99,,2013-04-25 14:42:00,
2013-04-25 10:51:00,44.0,33.0,-100.00,SW,215,7.0,17.0,65,0.00,,,-99.99,,2013-04-25 14:51:00,
2013-04-25 11:02:00,44.0,31.0,-100.00,SW,215,13.0,17.0,60,0.00,,,-99.99,,2013-04-25 15:02:00,
2013-04-25 11:11:00,44.0,32.0,-100.00,SW,225,10.0,17.0,62,0.00,,,-99.99,,2013-04-25 15:11:00,
2013-04-25 11:21:00,44.0,31.0,-100.00,SW,225,12.0,19.0,60,0.00,,,-99.99,,2013-04-25 15:21:00,
2013-04-25 11:33:00,45.0,32.0,-100.00,SSW,200,9.0,18.0,61,0.00,,,-99.99,,2013-04-25 15:33:00,
2013-04-25 11:42:00,46.0,32.0,-100.00,SSW,195,10.0,18.0,59,0.00,,,-99.99,,2013-04-25 15:42:00,
2013-04-25 11:53:00,47.0,33.0,-100.00,SSW,210,11.0,17.0,59,0.00,,,-99.99,,2013-04-25 15:53:00,
2013-04-25 12:02:00,46.0,31.0,-100.00,WSW,245,12.0,19.0,56,0.00,,,-99.99,,2013-04-25 16:02:00,
2013-04-25 12:13:00,47.0,32.0,-100.00,SSW,210,12.0,19.0,55,0.00,,,-99.99,,2013-04-25 16:13:00,
2013-04-25 12:24:00,47.0,32.0,-100.00,SSW,195,12.0,18.0,57,0.00,,,-99.99,,2013-04-25 16:24:00,
2013-04-25 12:33:00,47.0,32.0,-100.00,SSW,200,12.0,18.0,54,0.00,,,-99.99,,2013-04-25 16:33:00,
2013-04-25 12:43:00,47.0,32.0,-100.00,SSW,195,12.0,21.0,55,0.00,,,-99.99,,2013-04-25 16:43:00,
2013-04-25 12:52:00,48.0,31.0,-100.00,SW,225,11.0,19.0,50,0.00,,,-99.99,,2013-04-25 16:52:00,
2013-04-25 13:02:00,48.0,32.0,-100.00,SSW,205,12.0,22.0,53,0.00,,,-99.99,,2013-04-25 17:02:00,
2013-04-25 13:11:00,47.0,31.0,-100.00,SW,225,15.0,23.0,52,0.00,,,-99.99,,2013-04-25 17:11:00,
2013-04-25 13:22:00,48.0,31.0,-100.00,SW,225,13.0,21.0,53,0.00,,,-99.99,,2013-04-25 17:22:00,
2013-04-25 13:32:00,49.0,32.0,-100.00,SSW,195,15.0,22.0,52,0.00,,,-99.99,,2013-04-25 17:32:00,
2013-04-25 13:42:00,49.0,33.0,-100.00,SW,235,14.0,20.0,52,0.00,,,-99.99,,2013-04-25 17:42:00,
2013-04-25 13:53:00,48.0,32.0,-100.00,SSW,195,13.0,17.0,53,0.00,,,-99.99,,2013-04-25 17:53:00,
2013-04-25 14:01:00,49.0,33.0,-100.00,SSW,205,15.0,21.0,53,0.00,,,-99.99,,2013-04-25 18:01:00,
2013-04-25 14:11:00,51.0,33.0,-100.00,SSW,205,12.0,22.0,51,0.00,,,-99.99,,2013-04-25 18:11:00,
2013-04-25 14:22:00,49.0,33.0,-100.00,SSW,210,17.0,24.0,53,0.00,,,-99.99,,2013-04-25 18:22:00,
2013-04-25 14:32:00,49.0,33.0,-100.00,South,185,17.0,22.0,52,0.00,,,-99.99,,2013-04-25 18:32:00,
2013-04-25 14:42:00,50.0,35.0,-100.00,SSW,195,11.0,21.0,56,0.00,,,-99.99,,2013-04-25 18:42:00,
2013-04-25 14:52:00,49.0,33.0,-100.00,SSW,205,15.0,25.0,52,0.00,,,-99.99,,2013-04-25 18:52:00,
2013-04-25 15:02:00,49.0,34.0,-100.00,SW,215,14.0,21.0,54,0.00,,,-99.99,,2013-04-25 19:02:00,
2013-04-25 15:12:00,50.0,33.0,-100.00,SW,220,12.0,24.0,52,0.00,,,-99.99,,2013-04-25 19:12:00,
2013-04-25 15:21:00,50.0,33.0,-100.00,SSW,200,16.0,22.0,51,0.00,,,-99.99,,2013-04-25 19:21:00,
2013-04-25 15:32:00,50.0,35.0,-100.00,SSW,210,13.0,21.0,57,0.00,,,-99.99,,2013-04-25 19:32:00,
2013-04-25 15:42:00,51.0,34.0,-100.00,SW,225,14.0,22.0,53,0.00,,,-99.99,,2013-04-25 19:42:00,
2013-04-25 15:52:00,51.0,36.0,-100.00,SSW,200,17.0,25.0,56,0.00,,,-99.99,,2013-04-25 19:52:00,
2013-04-25 16:02:00,52.0,35.0,-100.00,SW,215,15.0,24.0,52,0.00,,,-99.99,,2013-04-25 20:02:00,
2013-04-25 16:11:00,50.0,33.0,-100.00,SW,215,14.0,23.0,52,0.00,,,-99.99,,2013-04-25 20:11:00,
2013-04-25 16:22:00,50.0,35.0,-100.00,SW,225,8.0,19.0,55,0.00,,,-99.99,,2013-04-25 20:22:00,
2013-04-25 16:32:00,51.0,34.0,-100.00,WSW,245,13.0,23.0,51,0.00,,,-99.99,,2013-04-25 20:32:00,
2013-04-25 16:42:00,51.0,34.0,-100.00,WSW,245,11.0,18.0,51,0.00,,,-99.99,,2013-04-25 20:42:00,
2013-04-25 16:52:00,52.0,36.0,-100.00,SW,235,12.0,22.0,54,0.00,,,-99.99,,2013-04-25 20:52:00,
2013-04-25 17:01:00,51.0,34.0,-100.00,SW,230,12.0,25.0,52,0.00,,,-99.99,,2013-04-25 21:01:00,
2013-04-25 17:11:00,50.0,35.0,-100.00,SW,225,17.0,23.0,55,0.00,,,-99.99,,2013-04-25 21:11:00,
2013-04-25 17:22:00,48.0,36.0,-100.00,West,265,11.0,24.0,61,0.00,,,-99.99,,2013-04-25 21:22:00,
2013-04-25 17:33:00,50.0,36.0,-100.00,WSW,245,6.0,12.0,60,0.00,,,-99.99,,2013-04-25 21:33:00,
2013-04-25 17:42:00,49.0,35.0,-100.00,WSW,245,7.0,10.0,58,0.00,,,-99.99,,2013-04-25 21:42:00,
2013-04-25 17:52:00,50.0,36.0,-100.00,West,270,5.0,11.0,59,0.00,,,-99.99,,2013-04-25 21:52:00,
2013-04-25 18:03:00,50.0,37.0,-100.00,West,270,4.0,10.0,61,0.00,,,-99.99,,2013-04-25 22:03:00,
2013-04-25 18:12:00,50.0,36.0,-100.00,WSW,250,6.0,11.0,59,0.00,,,-99.99,,2013-04-25 22:12:00,
2013-04-25 18:22:00,48.0,38.0,-100.00,West,275,8.0,12.0,66,0.55,,,-99.99,,2013-04-25 22:22:00,
2013-04-25 18:33:00,48.0,38.0,-100.00,West,270,5.0,14.0,68,0.00,,,-99.99,,2013-04-25 22:33:00,
2013-04-25 18:42:00,49.0,38.0,-100.00,West,265,6.0,11.0,65,0.00,,,-99.99,,2013-04-25 22:42:00,
2013-04-25 18:52:00,49.0,37.0,-100.00,WNW,300,11.0,16.0,64,0.00,,,-99.99,,2013-04-25 22:52:00,
2013-04-25 19:02:00,49.0,36.0,-100.00,NW,305,8.0,16.0,62,0.00,,,-99.99,,2013-04-25 23:02:00,
2013-04-25 19:12:00,49.0,38.0,-100.00,NW,310,7.0,12.0,65,0.00,,,-99.99,,2013-04-25 23:12:00,
2013-04-25 19:22:00,48.0,36.0,-100.00,WNW,300,10.0,17.0,63,0.00,,,-99.99,,2013-04-25 23:22:00,
2013-04-25 19:32:00,48.0,36.0,-100.00,WNW,295,8.0,14.0,62,0.00,,,-99.99,,2013-04-25 23:32:00,
2013-04-25 19:42:00,48.0,35.0,-100.00,WNW,285,6.0,11.0,61,0.00,,,-99.99,,2013-04-25 23:42:00,
2013-04-25 19:52:00,48.0,35.0,-100.00,WNW,295,9.0,13.0,60,0.00,,,-99.99,,2013-04-25 23:52:00,
2013-04-25 20:01:00,48.0,33.0,-100.00,WNW,295,11.0,17.0,55,0.00,,,-99.99,,2013-04-26 00:01:00,
2013-04-25 20:11:00,48.0,33.0,-100.00,WNW,300,9.0,16.0,56,0.00,,,-99.99,,2013-04-26 00:11:00,
2013-04-25 20:21:00,48.0,31.0,-100.00,WNW,300,9.0,13.0,51,0.00,,,-99.99,,2013-04-26 00:21:00,
2013-04-25 20:32:00,48.0,30.0,-100.00,WNW,300,9.0,15.0,50,0.00,,,-99.99,,2013-04-26 00:32:00,
2013-04-25 20:41:00,47.0,31.0,-100.00,WNW,300,7.0,16.0,52,0.00,,,-99.99,,2013-04-26 00:41:00,
2013-04-25 20:51:00,47.0,31.0,-100.00,NW,305,4.0,11.0,53,0.00,,,-99.99,,2013-04-26 00:51:00,
2013-04-25 21:01:00,46.0,30.0,-100.00,NW,310,6.0,9.0,54,0.00,,,-99.99,,2013-04-26 01:01:00,
2013-04-25 21:11:00,46.0,30.0,-100.00,WNW,300,6.0,9.0,52,0.00,,,-99.99,,2013-04-26 01:11:00,
2013-04-25 21:21:00,46.0,28.0,-100.00,NW,315,6.0,12.0,50,0.00,,,-99.99,,2013-04-26 01:21:00,
2013-04-25 21:32:00,46.0,28.0,-100.00,WNW,300,6.0,12.0,50,0.00,,,-99.99,,2013-04-26 01:32:00,
2013-04-25 21:42:00,46.0,26.0,-100.00,NW,305,7.0,11.0,46,0.00,,,-99.99,,2013-04-26 01:42:00,
2013-04-25 21:52:00,45.0,26.0,-100.00,WNW,300,4.0,9.0,47,0.00,,,-99.99,,2013-04-26 01:52:00,
2013-04-25 22:02:00,45.0,26.0,-100.00,WNW,290,3.0,7.0,47,0.00,,,-99.99,,2013-04-26 02:02:00,
2013-04-25 22:11:00,45.0,25.0,-100.00,WNW,285,3.0,5.0,46,0.00,,,-99.99,,2013-04-26 02:11:00,
2013-04-25 22:21:00,44.0,25.0,-100.00,WNW,285,2.0,5.0,45,0.00,,,-99.99,,2013-04-26 02:21:00,
2013-04-25 22:32:00,44.0,24.0,-100.00,WNW,290,3.0,6.0,45,0.00,,,-99.99,,2013-04-26 02:32:00,
2013-04-25 22:42:00,43.0,25.0,-100.00,NW,305,2.0,3.0,47,0.00,,,-99.99,,2013-04-26 02:42:00,
2013-04-25 22:51:00,43.0,25.0,-100.00,WNW,290,2.0,3.0,48,0.00,,,-99.99,,2013-04-26 02:51:00,
2013-04-25 23:01:00,43.0,25.0,-100.00,WNW,290,1.0,3.0,49,0.00,,,-99.99,,2013-04-26 03:01:00,
2013-04-25 23:11:00,43.0,25.0,-100.00,WNW,290,2.0,4.0,48,0.00,,,-99.99,,2013-04-26 03:11:00,
2013-04-25 23:21:00,43.0,24.0,-100.00,WNW,290,2.0,4.0,47,0.00,,,-99.99,,2013-04-26 03:21:00,
2013-04-25 23:33:00,43.0,24.0,-100.00,WNW,290,2.0,4.0,46,0.00,,,-99.99,,2013-04-26 03:33:00,
2013-04-25 23:43:00,43.0,24.0,-100.00,West,280,2.0,3.0,48,0.00,,,-99.99,,2013-04-26 03:43:00,
2013-04-25 23:53:00,43.0,24.0,-100.00,WNW,285,2.0,4.0,47,0.00,,,-99.99,,2013-04-26 03:53:00,